Regional Weather Roundup
Issued by NWS Little Rock, AR

Home | Current Version | Previous Version | Text Only | Print | Product List | Glossary Off
Versions: 1 2 3 4 5 6 7 8 9 10 11 12 13 14 15 16 17 18 19 20 21 22 23 24 25 26 27 28 29 30 31 32 33 34 35 36 37 38 39 40 41 42 43 44 45 46 47 48 49 50

000
ASUS44 KLZK 251000
RWRLZK
ARKANSAS STATE WEATHER ROUNDUP
NATIONAL WEATHER SERVICE LITTLE ROCK AR
ISSUED BY NATIONAL WEATHER SERVICE MEMPHIS TN
500 AM CDT WED APR 25 2018

NOTE: "FAIR" INDICATES FEW OR NO CLOUDS BELOW 12,000 FEET WITH NO
SIGNIFICANT WEATHER AND/OR OBSTRUCTIONS TO VISIBILITY.

ARZ001-003-010-029-251100-
NORTHWEST ARKANSAS

CITY           SKY/WX    TMP DP  RH WIND       PRES   REMARKS
FORT SMITH     CLEAR     52  46  80 E6        29.99F
HARRISON       CLEAR     52  40  63 NW6       30.05S
BENTONVILLE    CLEAR     52  42  69 N3        30.08R
SILOAM SPGS    CLEAR     49  42  77 CALM      30.06R
HIGHFILL       CLEAR     51  40  65 N7        30.06R
$$

ARZ004-005-016-251100-
NORTH CENTRAL ARKANSAS

CITY           SKY/WX    TMP DP  RH WIND       PRES   REMARKS
BATESVILLE     CLEAR     53  52  96 NW3       30.03F
FLIPPIN        CLEAR     48  46  93 CALM      30.04F
MTN HOME       CLEAR     50  48  93 CALM      30.02F
$$

ARZ040-041-251100-
WEST CENTRAL ARKANSAS

CITY           SKY/WX    TMP DP  RH WIND       PRES   REMARKS
MOUNT IDA      CLOUDY    49  48  97 CALM      30.03S
$$

ARZ017-025-026-028-251100-
NORTHEAST ARKANSAS

CITY           SKY/WX    TMP DP  RH WIND       PRES   REMARKS
JONESBORO      FAIR      57  55  93 W9        30.01S
NEWPORT        FAIR      55  53  93 W6        30.02F
WALNUT RIDGE   FAIR      53  49  86 W7        30.01F
BLYTHEVILLE    FAIR      56  53  90 W6        30.01S
$$

ARZ022-033-042-044-251100-
CENTRAL ARKANSAS

CITY           SKY/WX    TMP DP  RH WIND       PRES   REMARKS
LITTLE ROCK    FAIR      54  54 100 SW3       30.03F
JACKSONVILLE   CLEAR     51  51  99 CALM      30.02F FOG
SEARCY         FAIR      52  52 100 CALM      30.04S FOG
HOT SPRINGS    CLOUDY    54  53  97 CALM      30.05F
RUSSELLVILLE   CLEAR     50  49  96 CALM      30.03F
$$

ARZ036-251100-
EAST ARKANSAS

CITY           SKY/WX    TMP DP  RH WIND       PRES   REMARKS
WEST MEMPHIS   FAIR      55  55 100 CALM      30.01F
$$

ARZ050-070-073-251100-
SOUTHWEST ARKANSAS

CITY           SKY/WX    TMP DP  RH WIND       PRES   REMARKS
TEXARKANA      CLOUDY    57  51  80 NE3       30.03R
EL DORADO      MOCLDY    57  57 100 NE5       30.03F
DEQUEEN        CLOUDY    53  52  96 E3        30.01S
$$

ARZ056-057-069-251100-
SOUTHEAST ARKANSAS

CITY           SKY/WX    TMP DP  RH WIND       PRES   REMARKS
PINE BLUFF     FAIR      55  53  93 CALM      30.04F
STUTTGART      FAIR      56  55  97 SW6       30.03F
MONTICELLO     FAIR      53  51  93 CALM      30.03F
$$





USA.gov is the U.S. government's official web portal to all federal, state and local government web resources and services.